User: anonymous   Login
Location: Wawayanda State Park
(41.1833°N, 74.4333°W)
Time: 07:15:13
(UTC-05:00)
Language:

Landsat 7 - Orbit

View from above orbital plane
View from above orbital plane
View from above satellite
View from above satellite

Ground track
Ground track

The orbit data is extracted from the following two-line orbital elements,

1 25682U 99020A   17325.17299511  .00000008  00000-0  11692-4 0  9997
2 25682  98.1948  34.0182 0000741  60.7345 299.3936 14.57117633989453
Epoch (UTC): 21 November 2017 04:09:06
Eccentricity: 0.0000741
inclination: 98.1948°
perigee height: 702 km
apogee height: 703 km
right ascension of ascending node: 34.0182°
argument of perigee: 60.7345°
revolutions per day: 14.57117633
mean anomaly at epoch: 299.3936°
orbit number at epoch: 98945

The dashed part of the orbit path shows where the satellite is in the earth's shadow,  

DLR